Flag for Canada Weather past 2 weeks in Moncton, New Brunswick, Canada

Now
52 °F

Partly sunny.


Feels Like: 47 °F
Forecast: 38 / 58 °F
Wind: 15 mph from Southwest

Location: Moncton


UV Index: 3 (Moderate)

Visibility: 15 mi


Pressure: 30.01 "Hg

Humidity: 35%

Dew point: 25 °F

Location of MonctonLocation

Historic Weather in Moncton

°F

Moncton temperature yesterday

Maximum temperature yesterday: 50 °F (at 4:00 PM)
Minimum temperature yesterday: 32 °F (at 12:00 AM)
Average temperature yesterday: 40 °F

Past Weeks' High & Low Weather Summary

 TemperatureHumidityPressure
High66 °F (Apr 15, 5:00 PM)100% (Apr 9, 12:00 AM)30.84 "Hg (Apr 9, 12:00 AM)
Low19 °F (Apr 17, 6:00 AM)20% (Apr 20, 6:00 PM)29.21 "Hg (Apr 9, 4:00 AM)
Average41 °F62%30.05 "Hg
* Reported Apr 6 12:00 Noon — Apr 21 12:00 Noon, Moncton, Weather by CustomWeather, © 2014

Note: Actual official high and low records may vary slightly from our data, if they occured in-between our weather recording intervals... More about our weather records

Advertising

Historic Weather Conditions — Data for Previous 24 hours

 ConditionsComfort  
Time TempWeatherWind HumidityBarometerVisibility
12:00 PM
Apr 21
52 °FPartly sunny.15 mph35%30.01 "Hg15 mi
11:00 AM48 °FPartly sunny.13 mph37%30.05 "Hg15 mi
10:00 AM45 °FOvercast.6 mph49%30.07 "Hg15 mi
9:00 AM41 °FMostly cloudy.9 mph61%30.09 "Hg15 mi
8:00 AM36 °FPartly sunny.8 mph75%30.12 "Hg15 mi
7:00 AM34 °FPassing clouds.7 mph75%30.13 "Hg15 mi
6:00 AM32 °FPassing clouds.7 mph80%30.15 "Hg15 mi
5:00 AM32 °FOvercast.8 mph80%30.18 "Hg15 mi
4:00 AM32 °FPassing clouds.9 mph75%30.20 "Hg15 mi
3:00 AM34 °FPassing clouds.7 mph65%30.23 "Hg15 mi
2:00 AM34 °FPassing clouds.8 mph60%30.25 "Hg15 mi
1:00 AM36 °FMostly cloudy.7 mph56%30.27 "Hg15 mi
12:00 AM37 °FOvercast.8 mph56%30.28 "Hg15 mi
11:00 PM
Apr 20
36 °FPassing clouds.7 mph56%30.30 "Hg15 mi
10:00 PM39 °FPassing clouds.7 mph56%30.31 "Hg15 mi
9:00 PM39 °FScattered clouds.7 mph56%30.31 "Hg15 mi
8:00 PM43 °FPartly sunny.7 mph46%30.31 "Hg15 mi
7:00 PM48 °FPartly sunny.6 mph25%30.32 "Hg15 mi
6:00 PM50 °FPartly sunny.6 mph20%30.32 "Hg15 mi
5:00 PM50 °FPassing clouds.12 mph25%30.33 "Hg15 mi
4:00 PM50 °FPartly sunny.12 mph28%30.35 "Hg15 mi
3:00 PM48 °FScattered clouds.13 mph29%30.37 "Hg15 mi
2:00 PM46 °FPartly sunny.7 mph32%30.39 "Hg15 mi
1:00 PM43 °FPartly sunny.6 mph39%30.40 "Hg15 mi
Weather by CustomWeather, © 2014

See weather overview